Simultaneous Nadir Overpasses (SNOs) Predictions

Prediction of SNOs between GOES-16 and FY3D Satellite Orbit:

Table of predicted SNOs for the next 14.0 days since TLE Epoch: 2/6/2021
Index Date Time (GOES-16) GOES-16 Lat,Lon FY3D Lat,Lon Distance(km) Time Diff (sec)
1 02/06/2021 18:24:32 -0.01, -75.19 0.65, -72.31 329.06 80
2 02/08/2021 06:46:00 0.01, -75.18 0.56, -77.48 263.25 80
3 02/09/2021 06:24:23 0.01, -75.17 -0.51, -72.90 258.80 80
4 02/10/2021 18:46:01 -0.00, -75.18 -0.67, -78.12 335.75 80
5 02/11/2021 18:29:44 0.00, -75.18 0.39, -73.54 187.13 80
6 02/13/2021 06:51:11 -0.00, -75.18 0.81, -78.71 403.12 80
7 02/14/2021 06:29:35 -0.00, -75.19 -0.26, -74.14 120.15 80
8 02/15/2021 18:51:12 0.00, -75.20 -0.92, -79.35 472.98 80
9 02/16/2021 18:34:55 0.00, -75.21 0.09, -74.76 50.90 80
10 02/19/2021 06:37:26 -0.01, -75.24 0.04, -75.36 14.17 80
